Regional Weather Roundup
Issued by NWS Raleigh/Durham, NC

Home | Current Version | Previous Version | Text Only | Print | Product List | Glossary On
Versions: 1 2 3 4 5 6 7 8 9 10 11 12 13 14 15 16 17 18 19 20 21 22 23 24 25 26 27 28 29 30 31 32 33 34 35 36 37 38 39 40 41 42 43 44 45 46 47 48 49 50
000
ASUS42 KRAH 261510
RWRRAH
NORTH CAROLINA WEATHER ROUNDUP
NATIONAL WEATHER SERVICE RALEIGH NC
1000 AM EST MON JAN 26 2015

NOTE: "FAIR" INDICATES FEW OR NO CLOUDS BELOW 12,000 FEET WITH NO
SIGNIFICANT WEATHER AND/OR OBSTRUCTIONS TO VISIBILITY.

NCZ001-053-055-056-065-067-261600-
WESTERN NORTH CAROLINA

CITY           SKY/WX    TMP DP  RH WIND       PRES   REMARKS
ASHEVILLE      LGT RAIN  38  34  85 N8        29.69R WCI  32
JEFFERSON      PTSUNNY   36  30  80 W13G18    29.61S WCI  27
MORGANTON      CLOUDY    40  37  89 N5        29.70R
HICKORY        CLOUDY    38  36  92 CALM      29.65S
RUTHERFORDTON  MOSUNNY   43  34  70 CALM      29.67R
MOUNT AIRY     LGT RAIN  39  36  87 CALM      29.68S
BOONE          FLURRIES  35  33  92 NW15G21   29.63R WCI  25
$$

NCZ021-022-025-041-071-084-088-261600-
CENTRAL NORTH CAROLINA

CITY           SKY/WX    TMP DP  RH WIND       PRES   REMARKS
CHARLOTTE      PTSUNNY   44  34  67 W5        29.66S
GREENSBORO     CLOUDY    41  35  79 N6        29.65R
WINSTON-SALEM  CLOUDY    41  34  76 N7        29.67R
RALEIGH-DURHAM PTSUNNY   44  41  89 NE5       29.64F
FORT BRAGG     CLOUDY    44  41  90 CALM      29.65F
FAYETTEVILLE   CLOUDY    46  41  82 CALM      29.65F
BURLINGTON     LGT RAIN  43  39  86 N3        29.65S
LAURINBURG     CLOUDY    48  41  76 W5        29.66F
$$

NCZ011-015-027-028-043-044-047-080-103-261600-
NORTHEASTERN NORTH CAROLINA

CITY           SKY/WX    TMP DP  RH WIND       PRES   REMARKS
ROCKY MT-WILSO LGT RAIN  44  39  82 NE10      29.65F
GREENVILLE     PTSUNNY   41  39  93 N7        29.69F
WASHINGTON     CLOUDY    43  40  90 CALM      29.65F
ELIZABETH CITY CLOUDY    46  42  86 NW5       29.68F
MANTEO         CLOUDY    48  45  87 N3        29.66F
CAPE HATTERAS  CLOUDY    51  46  83 CALM      29.64F
$$

NCZ078-087-090-091-093-098-101-261600-
SOUTHEASTERN NORTH CAROLINA

CITY           SKY/WX    TMP DP  RH WIND       PRES   REMARKS
LUMBERTON      MOSUNNY   51  42  71 W12       29.66S
GOLDSBORO      MOSUNNY   46  45  98 NW1       29.64F
KINSTON        SUNNY     43  39  87 CALM      29.66F
KENANSVILLE    CLOUDY    42  41  95 CALM      29.67R
NEW BERN       CLOUDY    47  42  83 CALM      29.67S
CHERRY POINT   LGT RAIN  46  43  89 S5        29.67S
BEAUFORT       CLOUDY    47  45  93 CALM      29.67S
JACKSONVILLE   CLOUDY    47  44  90 S3        29.68R
WILMINGTON     CLOUDY    49  45  86 W9        29.66R
$$



USA.gov is the U.S. government's official web portal to all federal, state and local government web resources and services.